Location: Newark
(27.9675°N, 86.8869°E)
Time: 14:29:12
(UTC+00:00)

deb Explorer IX - Pass Details

Date: 29 October 2019
Orbit: 546 x 1105 km, 38.8° (Epoch: 17 November)

Event Time Altitude Azimuth Distance (km) Brightness Sun altitude
Rises 06:36:07 0° 300° (WNW) 2,874 ? 47.5°
Reaches altitude 10° 06:38:40 10° 314° (NW) 2,042 ? 47.4°
Maximum altitude 06:42:35 25° 10° (N) 1,413 ? 47.2°
Drops below altitude 10° 06:46:59 10° 65° (ENE) 2,325 ? 46.9°
Sets 06:50:06 0° 78° (ENE) 3,369 ? 46.6°
